Flag for U.S.A. Weather past 2 weeks in Corvallis, Oregon, U.S.A.

Now
52 °F

Clear.


Feels Like: 50 °F
Forecast: 53 / 80 °F
Wind: 6 mph from Northwest

Location: Corvallis Municipal

Current Time: Aug 5, 2015 at 6:22:15 AM

Latest Report: Aug 5, 2015 at 5:55 AM


Visibility: 10 mi

Pressure: 30.11 "Hg

Humidity: 82%

Dew point: 46 °F

Location of CorvallisLocation

Historic Weather in Corvallis — Graph

°F

Corvallis temperature yesterday

Maximum temperature yesterday: 88 °F (at 3:55 PM)
Minimum temperature yesterday: 55 °F (at 5:15 AM)
Average temperature yesterday: 69 °F

Past Weeks' High & Low Weather Summary

 TemperatureHumidityPressure
High108 °F (Jul 30, 4:35 PM)94% (Jul 26, 6:15 AM)30.25 "Hg (Jul 26, 6:15 AM)
Low46 °F (Jul 24, 4:55 AM)11% (Aug 1, 4:15 PM)29.84 "Hg (Aug 1, 6:55 PM)
Average70 °F54%30.04 "Hg
* Reported Jul 21 5:15 AM — Aug 5 5:15 AM, Corvallis, Weather by CustomWeather, © 2015

Note: Actual official high and low records may vary slightly from our data, if they occured in-between our weather recording intervals... More about our weather records

Advertising

Corvallis weather history for previous 24 hours

 ConditionsComfort  
Time TempWeatherWind HumidityBarometerVisibility
5:15 AM
Wed, Aug 5
52 °FClear.7 mph82%30.11 "Hg10 mi
4:55 AM54 °FClear.6 mph77%30.11 "Hg10 mi
4:35 AM54 °FClear.5 mph82%30.10 "Hg10 mi
4:15 AM52 °FClear.6 mph82%30.10 "Hg10 mi
3:55 AM54 °FClear.7 mph82%30.10 "Hg10 mi
3:35 AM54 °FClear.3 mph82%30.09 "Hg10 mi
3:15 AM55 °FClear.5 mph77%30.09 "Hg10 mi
2:55 AM54 °FClear.7 mph82%30.09 "Hg10 mi
2:35 AM57 °FClear.7 mph72%30.08 "Hg10 mi
2:15 AM55 °FClear.8 mph77%30.07 "Hg10 mi
1:55 AM57 °FClear.9 mph72%30.07 "Hg10 mi
1:35 AM57 °FClear.9 mph72%30.05 "Hg10 mi
1:15 AM59 °FClear.10 mph68%30.06 "Hg10 mi
12:55 AM59 °FClear.13 mph68%30.05 "Hg10 mi
12:35 AM61 °FClear.13 mph63%30.05 "Hg10 mi
12:15 AM61 °FClear.10 mph63%30.05 "Hg10 mi
11:55 PM
Tue, Aug 4
61 °FClear.10 mph63%30.04 "Hg10 mi
11:35 PM61 °FClear.13 mph63%30.03 "Hg10 mi
11:15 PM61 °FClear.14 mph63%30.03 "Hg10 mi
10:55 PM61 °FClear.16 mph63%30.03 "Hg10 mi
10:35 PM63 °FClear.15 mph59%30.02 "Hg10 mi
10:15 PM63 °FClear.14 mph59%30.01 "Hg10 mi
9:35 PM64 °FClear.17 mph56%30.00 "Hg10 mi
8:55 PM66 °FSunny.15 mph52%29.99 "Hg10 mi
8:15 PM70 °FSunny.18 mph46%29.98 "Hg10 mi
7:55 PM72 °FSunny.17 mph44%29.98 "Hg10 mi
7:35 PM73 °FSunny.21 mph41%29.97 "Hg10 mi
7:15 PM75 °FSunny.17 mph36%29.97 "Hg10 mi
6:55 PM77 °FSunny.17 mph34%29.96 "Hg10 mi
6:35 PM79 °FSunny.18 mph32%29.96 "Hg10 mi
6:15 PM81 °FSunny.20 mph32%29.96 "Hg10 mi
5:55 PM82 °FSunny.17 mph32%29.96 "Hg10 mi
5:35 PM84 °FSunny.16 mph29%29.96 "Hg10 mi
5:15 PM84 °FSunny.13 mph31%29.96 "Hg10 mi
4:55 PM88 °FSunny.14 mph27%29.95 "Hg10 mi
4:35 PM88 °FSunny.10 mph24%29.96 "Hg10 mi
4:15 PM88 °FSunny.10 mph24%29.96 "Hg9 mi
3:55 PM88 °FSunny.7 mph24%29.96 "Hg8 mi
3:35 PM86 °FSunny.6 mph25%29.97 "Hg5 mi
3:15 PM84 °FSunny.6 mph27%29.98 "Hg10 mi
2:55 PM84 °FSunny.7 mph27%29.98 "Hg10 mi
2:35 PM84 °FSunny.6 mph27%29.99 "Hg7 mi
2:15 PM82 °FSunny.7 mph28%30.00 "Hg10 mi
1:55 PM82 °FSunny.10 mph26%30.00 "Hg10 mi
1:35 PM82 °FSunny.6 mph26%30.01 "Hg10 mi
1:15 PM81 °FSunny.8 mph28%30.02 "Hg9 mi
12:55 PM81 °FSunny.9 mph28%30.02 "Hg9 mi
12:35 PM79 °FSunny.9 mph28%30.02 "Hg10 mi
12:15 PM79 °FSunny.8 mph28%30.03 "Hg10 mi
11:55 AM77 °FSunny.9 mph32%30.03 "Hg10 mi
11:35 AM75 °FSunny.7 mph39%30.03 "Hg10 mi
11:15 AM73 °FSunny.5 mph44%30.03 "Hg10 mi
10:55 AM73 °FSunny.10 mph44%30.04 "Hg10 mi
10:35 AM72 °FSunny.6 mph47%30.04 "Hg10 mi
10:15 AM72 °FSunny.7 mph50%30.04 "Hg10 mi
9:55 AM70 °FSunny.8 mph53%30.04 "Hg10 mi
9:35 AM66 °FSunny.6 mph60%30.04 "Hg10 mi
9:15 AM66 °FSunny.5 mph64%30.04 "Hg10 mi
8:55 AM64 °FSunny.5 mph68%30.04 "Hg10 mi
8:35 AM64 °FSunny.5 mph68%30.04 "Hg10 mi
8:15 AM63 °FSunny.5 mph73%30.04 "Hg10 mi
7:55 AM61 °FSunny.6 mph77%30.04 "Hg10 mi
7:35 AM57 °FSunny.6 mph88%30.03 "Hg10 mi
7:15 AM57 °FSunny.6 mph88%30.03 "Hg10 mi
6:55 AM55 °FClear.6 mph88%30.03 "Hg10 mi
6:35 AM55 °FClear.7 mph88%30.03 "Hg10 mi
6:15 AM55 °FClear.6 mph88%30.02 "Hg10 mi
Weather by CustomWeather, © 2015

See weather overviewHow to use our weather pages